Location: Newark
(52.3500°N, 175.9667°E)
Time: 22:24:30
(UTC+00:00)

Transit 4A - Pass Details

Date: 25 April 2021
Orbit: 871 x 974 km, 66.8° (Epoch: 16 May)

Event Time Altitude Azimuth Distance (km) Brightness Sun altitude
Rises 11:57:54 0° 236° (WSW) 3,611 - -24.2°
Reaches altitude 10° 12:00:33 10° 242° (WSW) 2,654 - -24.2°
Exits shadow 12:01:53 17° 246° (WSW) 2,188 9.6 -24.2°
Maximum altitude 12:06:34 53° 318° (NW) 1,130 8.5 -24.3°
Drops below altitude 10° 12:12:28 10° 35° (NE) 2,594 10.9 -24.3°
Sets 12:15:01 0° 41° (NE) 3,523 11.7 -24.3°
